Back to catalog

STARLINK-5348

AliveCommunicationsVLEO
NORAD 56515·PAYLOAD·🇺🇸 United States

Launched May 14, 2023 from Cape Canaveral Space Force Station

Loading…

Next Passes (next 24 hours)

TLE

FreshSource: CelesTrak SupGP

Epoch: Sep 14, 2026, 13:37 UTC

1 56515C 23065N   26257.56784722 -.00028525  00000+0 -10332-2 0  2572
2 56515  42.9997 225.7437 0001041 263.6409 209.3401 15.27593302    17

Track STARLINK-5348 in real time with AllMySat

Download on the App Store